UAL1209 KORD-KEWR

Flight info

Callsign UAL1209
Flight time 2h 7m
Altitude 35000
Route DUFEE ELX HAAKK DOXXY SOSIC KEEHO J584 SLT J584 FQM FQM3
Aircraft B77W/H-SDE1E2E3FGHIJ2J3J4J5M1RWXY/S

Departure

Time 2026-04-23 03:05
Airport Chicago O'Hare International Airport (KORD)

Arrival

Time 2026-04-23 05:12
Airport Newark Liberty International Airport (KEWR)
Time Latitude Longitude Altitude Speed Heading
2026-04-23 02:11 41.98192 -87.90668 670 ft 0 kts 155°
2026-04-23 02:47 41.98202 -87.90675 670 ft 2 kts 152°
2026-04-23 02:48 41.98215 -87.90684 670 ft 2 kts 165°
2026-04-23 02:48 41.98230 -87.90685 669 ft 2 kts 187°
2026-04-23 02:48 41.98245 -87.90681 669 ft 2 kts 204°
2026-04-23 02:48 41.98257 -87.90671 669 ft 2 kts 221°
2026-04-23 02:49 41.98267 -87.90655 669 ft 2 kts 239°
2026-04-23 02:49 41.98273 -87.90637 669 ft 2 kts 257°
2026-04-23 02:49 41.98275 -87.90621 669 ft 0 kts 271°
2026-04-23 02:49 41.98275 -87.90616 669 ft 0 kts 272°
2026-04-23 02:51 41.98275 -87.90640 669 ft 4 kts 272°
2026-04-23 02:51 41.98277 -87.90692 669 ft 6 kts 271°
2026-04-23 02:51 41.98275 -87.90752 669 ft 6 kts 261°
2026-04-23 02:51 41.98264 -87.90818 670 ft 7 kts 253°
2026-04-23 02:52 41.98244 -87.90887 670 ft 8 kts 246°
2026-04-23 02:52 41.98220 -87.90959 671 ft 8 kts 242°
2026-04-23 02:52 41.98186 -87.91029 671 ft 8 kts 233°
2026-04-23 02:52 41.98143 -87.91099 672 ft 10 kts 225°
2026-04-23 02:53 41.98082 -87.91164 673 ft 11 kts 211°
2026-04-23 02:53 41.98007 -87.91219 673 ft 12 kts 207°
2026-04-23 02:53 41.97923 -87.91277 674 ft 14 kts 207°
2026-04-23 02:53 41.97830 -87.91341 675 ft 15 kts 207°
2026-04-23 02:54 41.97728 -87.91397 675 ft 15 kts 194°
2026-04-23 02:54 41.97623 -87.91412 675 ft 15 kts 178°
2026-04-23 02:54 41.97520 -87.91377 676 ft 15 kts 153°
2026-04-23 02:54 41.97445 -87.91303 675 ft 4 kts 139°
2026-04-23 02:55 41.97416 -87.91273 675 ft 4 kts 156°
2026-04-23 02:55 41.97386 -87.91267 676 ft 3 kts 191°
2026-04-23 02:55 41.97372 -87.91279 676 ft 1 kts 233°
2026-04-23 02:55 41.97365 -87.91296 676 ft 2 kts 247°
2026-04-23 02:56 41.97356 -87.91344 676 ft 7 kts 255°
2026-04-23 02:56 41.97337 -87.91421 676 ft 9 kts 243°
2026-04-23 02:56 41.97288 -87.91476 676 ft 9 kts 201°
2026-04-23 02:56 41.97241 -87.91537 676 ft 10 kts 246°
2026-04-23 02:57 41.97238 -87.91641 677 ft 15 kts 273°
2026-04-23 02:57 41.97242 -87.91814 677 ft 19 kts 269°
2026-04-23 02:57 41.97244 -87.91991 678 ft 18 kts 271°
2026-04-23 02:57 41.97247 -87.92164 679 ft 18 kts 269°
2026-04-23 02:58 41.97241 -87.92334 679 ft 18 kts 267°
2026-04-23 02:58 41.97243 -87.92502 681 ft 17 kts 272°
2026-04-23 02:58 41.97245 -87.92666 681 ft 17 kts 269°
2026-04-23 02:58 41.97242 -87.92826 683 ft 16 kts 269°
2026-04-23 02:59 41.97240 -87.92982 683 ft 16 kts 269°
2026-04-23 02:59 41.97213 -87.93114 684 ft 13 kts 214°
2026-04-23 02:59 41.97123 -87.93135 685 ft 13 kts 181°
2026-04-23 02:59 41.97049 -87.93136 685 ft 0 kts 180°
2026-04-23 03:03 41.97046 -87.93136 685 ft 3 kts 180°
2026-04-23 03:03 41.96989 -87.93137 685 ft 10 kts 180°
2026-04-23 03:03 41.96920 -87.93118 685 ft 9 kts 137°
2026-04-23 03:04 41.96900 -87.93038 685 ft 12 kts 92°
2026-04-23 03:04 41.96900 -87.92726 683 ft 69 kts 90°
2026-04-23 03:04 41.96901 -87.91741 678 ft 139 kts 90°
2026-04-23 03:04 41.96904 -87.90237 959 ft 172 kts 89°
2026-04-23 03:05 41.96919 -87.88650 1660 ft 177 kts 84°
2026-04-23 03:05 41.97353 -87.87083 2402 ft 190 kts 53°
2026-04-23 03:05 41.98273 -87.85695 2977 ft 210 kts 55°
2026-04-23 03:05 41.98853 -87.83860 3603 ft 226 kts 84°
2026-04-23 03:06 41.98948 -87.81709 4342 ft 240 kts 84°
2026-04-23 03:06 41.99219 -87.79447 5128 ft 254 kts 78°
2026-04-23 03:06 41.99607 -87.77058 5936 ft 268 kts 77°
2026-04-23 03:06 42.00015 -87.74648 6953 ft 271 kts 76°
2026-04-23 03:07 42.00432 -87.72143 7952 ft 277 kts 76°
2026-04-23 03:07 42.00847 -87.69650 8916 ft 281 kts 75°
2026-04-23 03:07 42.01281 -87.67083 9845 ft 286 kts 75°
2026-04-23 03:07 42.01725 -87.64434 10659 ft 297 kts 75°
2026-04-23 03:08 42.02185 -87.61684 11309 ft 314 kts 75°
2026-04-23 03:08 42.02671 -87.58767 12014 ft 330 kts 75°
2026-04-23 03:08 42.03181 -87.55694 12768 ft 345 kts 75°
2026-04-23 03:08 42.03715 -87.52475 13511 ft 361 kts 74°
2026-04-23 03:09 42.04271 -87.49112 14316 ft 376 kts 74°
2026-04-23 03:09 42.04842 -87.45652 15252 ft 386 kts 74°
2026-04-23 03:09 42.05421 -87.42139 16344 ft 392 kts 74°
2026-04-23 03:09 42.06008 -87.38562 17368 ft 398 kts 75°
2026-04-23 03:10 42.06604 -87.34928 18378 ft 404 kts 75°
2026-04-23 03:10 42.07217 -87.31179 19325 ft 412 kts 75°
2026-04-23 03:10 42.07832 -87.27413 20260 ft 419 kts 75°
2026-04-23 03:10 42.08458 -87.23572 21201 ft 425 kts 75°
2026-04-23 03:11 42.09084 -87.19725 22081 ft 431 kts 75°
2026-04-23 03:11 42.09729 -87.15745 22976 ft 437 kts 75°
2026-04-23 03:11 42.10377 -87.11743 23844 ft 443 kts 75°
2026-04-23 03:11 42.11023 -87.07642 24644 ft 450 kts 77°
2026-04-23 03:12 42.11357 -87.03464 25438 ft 459 kts 84°
2026-04-23 03:12 42.11532 -86.99115 26223 ft 466 kts 84°
2026-04-23 03:12 42.11691 -86.94791 26974 ft 473 kts 84°
2026-04-23 03:12 42.11853 -86.90340 27716 ft 480 kts 84°
2026-04-23 03:13 42.12017 -86.85805 28461 ft 487 kts 84°
2026-04-23 03:13 42.12181 -86.81244 29170 ft 493 kts 84°
2026-04-23 03:13 42.12344 -86.76627 30025 ft 496 kts 84°
2026-04-23 03:13 42.12506 -86.71977 31095 ft 492 kts 84°
2026-04-23 03:14 42.12665 -86.67384 32122 ft 489 kts 84°
2026-04-23 03:14 42.12821 -86.62835 32997 ft 487 kts 84°
2026-04-23 03:14 42.12978 -86.58189 33807 ft 486 kts 84°
2026-04-23 03:14 42.13129 -86.53702 34569 ft 486 kts 84°
2026-04-23 03:15 42.13283 -86.49098 35014 ft 490 kts 84°
2026-04-23 03:15 42.13580 -86.39998 35010 ft 485 kts 84°
2026-04-23 03:16 42.13869 -86.30927 35006 ft 486 kts 84°
2026-04-23 03:16 42.14289 -86.17303 35011 ft 484 kts 84°
2026-04-23 03:17 42.14491 -86.08253 35012 ft 486 kts 87°
2026-04-23 03:17 42.14407 -85.99134 35012 ft 485 kts 87°
2026-04-23 03:18 42.14323 -85.90020 35006 ft 486 kts 87°
2026-04-23 03:18 42.14241 -85.80949 35012 ft 486 kts 87°
2026-04-23 03:19 42.14158 -85.71861 35024 ft 487 kts 87°
2026-04-23 03:19 42.14069 -85.62738 35028 ft 488 kts 87°
2026-04-23 03:20 42.13975 -85.53626 35026 ft 488 kts 87°
2026-04-23 03:20 42.13874 -85.44473 35031 ft 487 kts 86°
2026-04-23 03:21 42.13767 -85.35407 35030 ft 487 kts 87°
2026-04-23 03:21 42.13652 -85.26272 35030 ft 488 kts 88°
2026-04-23 03:22 42.13531 -85.17162 35031 ft 488 kts 87°
2026-04-23 03:22 42.13403 -85.08051 35032 ft 488 kts 87°
2026-04-23 03:23 42.13260 -84.98879 35034 ft 487 kts 88°
2026-04-23 03:23 42.13098 -84.89751 35033 ft 488 kts 88°
2026-04-23 03:24 42.12928 -84.80631 35033 ft 489 kts 87°
2026-04-23 03:24 42.12751 -84.71489 35029 ft 487 kts 87°
2026-04-23 03:25 42.12567 -84.62359 35031 ft 488 kts 87°
2026-04-23 03:25 42.12377 -84.53253 35028 ft 487 kts 87°
2026-04-23 03:26 42.12600 -84.44195 35033 ft 483 kts 77°
2026-04-23 03:26 42.13599 -84.35281 35031 ft 481 kts 76°
2026-04-23 03:27 42.14602 -84.26401 35023 ft 482 kts 77°
2026-04-23 03:27 42.15596 -84.17499 35014 ft 481 kts 77°
2026-04-23 03:28 42.16582 -84.08599 35025 ft 482 kts 76°
2026-04-23 03:28 42.17560 -83.99689 35032 ft 482 kts 76°
2026-04-23 03:29 42.18532 -83.90769 35051 ft 482 kts 76°
2026-04-23 03:29 42.19497 -83.81843 35053 ft 481 kts 76°
2026-04-23 03:30 42.20451 -83.72945 35054 ft 482 kts 76°
2026-04-23 03:30 42.21408 -83.63957 35056 ft 483 kts 76°
2026-04-23 03:31 42.22352 -83.55017 35054 ft 482 kts 76°
2026-04-23 03:31 42.22294 -83.45937 35056 ft 496 kts 95°
2026-04-23 03:32 42.20757 -83.36817 35060 ft 498 kts 99°
2026-04-23 03:32 42.19117 -83.27774 35058 ft 499 kts 100°
2026-04-23 03:33 42.17456 -83.18666 35060 ft 499 kts 100°
2026-04-23 03:33 42.15789 -83.09576 35060 ft 498 kts 100°
2026-04-23 03:34 42.14125 -83.00540 35061 ft 500 kts 99°
2026-04-23 03:34 42.12445 -82.91469 35062 ft 500 kts 99°
2026-04-23 03:35 42.10759 -82.82398 35052 ft 499 kts 99°
2026-04-23 03:35 42.09074 -82.73386 35050 ft 499 kts 99°
2026-04-23 03:36 42.07380 -82.64362 35049 ft 500 kts 99°
2026-04-23 03:36 42.05666 -82.55278 35052 ft 500 kts 99°
2026-04-23 03:37 42.03959 -82.46272 35049 ft 499 kts 99°
2026-04-23 03:37 42.02230 -82.37193 35052 ft 500 kts 99°
2026-04-23 03:38 42.00496 -82.28130 35045 ft 500 kts 100°
2026-04-23 03:38 41.98762 -82.19108 35046 ft 501 kts 100°
2026-04-23 03:39 41.97024 -82.10111 35047 ft 502 kts 100°
2026-04-23 03:39 41.95272 -82.01077 35046 ft 502 kts 100°
2026-04-23 03:40 41.93509 -81.92032 35049 ft 502 kts 100°
2026-04-23 03:40 41.91796 -81.82990 35038 ft 499 kts 95°
2026-04-23 03:41 41.90911 -81.73834 35049 ft 495 kts 91°
2026-04-23 03:41 41.90111 -81.64639 35055 ft 494 kts 91°
2026-04-23 03:42 41.89297 -81.55450 35032 ft 494 kts 91°
2026-04-23 03:42 41.88478 -81.46335 35038 ft 493 kts 91°
2026-04-23 03:43 41.87652 -81.37246 35043 ft 495 kts 91°
2026-04-23 03:43 41.86814 -81.28114 35029 ft 495 kts 92°
2026-04-23 03:44 41.85960 -81.18909 35034 ft 495 kts 92°
2026-04-23 03:44 41.85107 -81.09795 35030 ft 495 kts 92°
2026-04-23 03:45 41.84248 -81.00687 35030 ft 496 kts 92°
2026-04-23 03:45 41.83376 -80.91534 35031 ft 495 kts 91°
2026-04-23 03:46 41.82498 -80.82392 35031 ft 496 kts 91°
2026-04-23 03:46 41.81612 -80.73244 35033 ft 496 kts 91°
2026-04-23 03:47 41.80720 -80.64121 35031 ft 495 kts 91°
2026-04-23 03:47 41.79822 -80.54999 35031 ft 497 kts 91°
2026-04-23 03:48 41.78914 -80.45863 35027 ft 496 kts 91°
2026-04-23 03:48 41.77992 -80.36659 35025 ft 500 kts 91°
2026-04-23 03:49 41.77063 -80.27465 35019 ft 498 kts 92°
2026-04-23 03:49 41.76128 -80.18284 35022 ft 498 kts 92°
2026-04-23 03:50 41.75183 -80.09088 35019 ft 500 kts 92°
2026-04-23 03:50 41.74236 -79.99937 35017 ft 498 kts 92°
2026-04-23 03:51 41.73280 -79.90767 35013 ft 500 kts 92°
2026-04-23 03:51 41.72315 -79.81596 35014 ft 497 kts 92°
2026-04-23 03:52 41.71341 -79.72410 35014 ft 498 kts 92°
2026-04-23 03:52 41.70365 -79.63270 35012 ft 499 kts 92°
2026-04-23 03:53 41.69378 -79.54100 35016 ft 499 kts 92°
2026-04-23 03:53 41.68388 -79.44971 35018 ft 500 kts 92°
2026-04-23 03:54 41.67384 -79.35784 35021 ft 499 kts 92°
2026-04-23 03:54 41.66372 -79.26585 35015 ft 502 kts 92°
2026-04-23 03:55 41.65350 -79.17383 35015 ft 500 kts 92°
2026-04-23 03:55 41.64321 -79.08190 35017 ft 501 kts 92°
2026-04-23 03:56 41.63288 -78.99026 35017 ft 499 kts 92°
2026-04-23 03:56 41.62246 -78.89841 35020 ft 502 kts 92°
2026-04-23 03:57 41.61201 -78.80718 35018 ft 499 kts 92°
2026-04-23 03:57 41.60146 -78.71544 35022 ft 500 kts 92°
2026-04-23 03:58 41.59082 -78.62379 35024 ft 502 kts 92°
2026-04-23 03:58 41.58008 -78.53187 35024 ft 502 kts 92°
2026-04-23 03:59 41.56929 -78.44024 35022 ft 502 kts 92°
2026-04-23 03:59 41.55843 -78.34855 35024 ft 503 kts 93°
2026-04-23 04:00 41.54740 -78.25622 35016 ft 502 kts 93°
2026-04-23 04:00 41.53637 -78.16446 35016 ft 502 kts 93°
2026-04-23 04:01 41.52522 -78.07229 35014 ft 502 kts 93°
2026-04-23 04:01 41.51406 -77.98072 35015 ft 503 kts 93°
2026-04-23 04:02 41.50168 -77.88919 35017 ft 502 kts 94°
2026-04-23 04:02 41.48869 -77.79816 35011 ft 504 kts 94°
2026-04-23 04:03 41.47561 -77.70673 35014 ft 504 kts 94°
2026-04-23 04:03 41.46244 -77.61494 35044 ft 504 kts 94°
2026-04-23 04:04 41.44926 -77.52356 34986 ft 504 kts 94°
2026-04-23 04:04 41.43600 -77.43203 34957 ft 503 kts 94°
2026-04-23 04:05 41.42265 -77.34036 35019 ft 506 kts 95°
2026-04-23 04:05 41.40914 -77.24818 35007 ft 505 kts 95°
2026-04-23 04:06 41.39706 -77.16616 35008 ft 506 kts 95°
2026-04-23 04:44 41.38937 -77.11420 35010 ft 507 kts 95°
2026-04-23 04:44 41.37575 -77.02254 35014 ft 506 kts 95°
2026-04-23 04:45 41.36199 -76.93054 34717 ft 501 kts 95°
2026-04-23 04:45 41.35520 -76.88529 33774 ft 507 kts 94°
2026-04-23 04:45 41.34827 -76.83903 32742 ft 514 kts 95°
2026-04-23 04:46 41.34117 -76.79255 31799 ft 519 kts 96°
2026-04-23 04:46 41.33086 -76.74595 30866 ft 527 kts 103°
2026-04-23 04:46 41.31882 -76.70026 30235 ft 524 kts 103°
2026-04-23 04:46 41.30676 -76.65522 29705 ft 518 kts 103°
2026-04-23 04:47 41.29475 -76.61044 29117 ft 514 kts 104°
2026-04-23 04:47 41.28272 -76.56562 28497 ft 511 kts 104°
2026-04-23 04:47 41.27088 -76.52158 27880 ft 508 kts 104°
2026-04-23 04:47 41.25903 -76.47756 27241 ft 505 kts 104°
2026-04-23 04:48 41.24721 -76.43370 26601 ft 502 kts 104°
2026-04-23 04:48 41.23550 -76.39032 25978 ft 499 kts 105°
2026-04-23 04:48 41.22396 -76.34765 25352 ft 495 kts 105°
2026-04-23 04:48 41.21232 -76.30463 24705 ft 492 kts 106°
2026-04-23 04:49 41.20066 -76.26165 24059 ft 489 kts 106°
2026-04-23 04:49 41.18922 -76.21957 23413 ft 485 kts 106°
2026-04-23 04:49 41.17780 -76.17759 22766 ft 482 kts 106°
2026-04-23 04:49 41.16654 -76.13631 22135 ft 478 kts 106°
2026-04-23 04:50 41.15526 -76.09502 21507 ft 474 kts 106°
2026-04-23 04:50 41.14409 -76.05419 20868 ft 470 kts 106°
2026-04-23 04:50 41.13293 -76.01347 20241 ft 466 kts 106°
2026-04-23 04:50 41.12200 -75.97366 19607 ft 462 kts 106°
2026-04-23 04:51 41.11108 -75.93394 18962 ft 459 kts 106°
2026-04-23 04:51 41.10011 -75.89413 18318 ft 455 kts 106°
2026-04-23 04:51 41.08939 -75.85525 17680 ft 451 kts 106°
2026-04-23 04:51 41.07860 -75.81619 17041 ft 448 kts 106°
2026-04-23 04:52 41.06807 -75.77814 16411 ft 444 kts 106°
2026-04-23 04:52 41.05747 -75.73988 15760 ft 441 kts 106°
2026-04-23 04:52 41.04693 -75.70189 15051 ft 436 kts 107°
2026-04-23 04:52 41.03659 -75.66475 14484 ft 428 kts 106°
2026-04-23 04:53 41.02634 -75.62793 13817 ft 423 kts 106°
2026-04-23 04:53 41.01623 -75.59166 13205 ft 414 kts 107°
2026-04-23 04:53 41.00646 -75.55666 12700 ft 407 kts 107°
2026-04-23 04:53 40.99675 -75.52187 12426 ft 397 kts 107°
2026-04-23 04:54 40.98725 -75.48794 12149 ft 388 kts 107°
2026-04-23 04:54 40.97799 -75.45483 11894 ft 384 kts 107°
2026-04-23 04:54 40.96883 -75.42212 11595 ft 380 kts 107°
2026-04-23 04:54 40.95965 -75.38942 11295 ft 373 kts 107°
2026-04-23 04:55 40.95070 -75.35758 11019 ft 365 kts 107°
2026-04-23 04:55 40.94199 -75.32662 10735 ft 358 kts 108°
2026-04-23 04:55 40.93344 -75.29625 10462 ft 351 kts 108°
2026-04-23 04:55 40.92507 -75.26659 10205 ft 345 kts 108°
2026-04-23 04:56 40.91670 -75.23693 9921 ft 338 kts 108°
2026-04-23 04:56 40.90858 -75.20820 9653 ft 333 kts 108°
2026-04-23 04:56 40.90058 -75.17992 9376 ft 328 kts 108°
2026-04-23 04:56 40.89265 -75.15196 9077 ft 323 kts 108°
2026-04-23 04:57 40.88485 -75.12441 8794 ft 318 kts 108°
2026-04-23 04:57 40.87718 -75.09739 8533 ft 314 kts 108°
2026-04-23 04:57 40.86965 -75.07068 8305 ft 307 kts 108°
2026-04-23 04:57 40.86224 -75.04439 8063 ft 302 kts 108°
2026-04-23 04:58 40.85504 -75.01888 7819 ft 297 kts 108°
2026-04-23 04:58 40.84778 -74.99320 7583 ft 293 kts 108°
2026-04-23 04:58 40.84071 -74.96822 7342 ft 291 kts 108°
2026-04-23 04:58 40.83361 -74.94315 7109 ft 292 kts 108°
2026-04-23 04:59 40.82650 -74.91806 6972 ft 289 kts 108°
2026-04-23 04:59 40.81966 -74.89317 6956 ft 291 kts 107°
2026-04-23 04:59 40.81289 -74.86797 6953 ft 290 kts 103°
2026-04-23 04:59 40.81119 -74.84212 6950 ft 282 kts 76°
2026-04-23 05:00 40.81820 -74.81873 6946 ft 269 kts 47°
2026-04-23 05:00 40.83174 -74.80232 6956 ft 260 kts 29°
2026-04-23 05:00 40.84664 -74.78899 6958 ft 260 kts 28°
2026-04-23 05:00 40.86161 -74.77580 6951 ft 259 kts 27°
2026-04-23 05:01 40.87669 -74.76256 6957 ft 259 kts 27°
2026-04-23 05:01 40.89170 -74.74937 6958 ft 259 kts 27°
2026-04-23 05:01 40.90679 -74.73614 6959 ft 258 kts 28°
2026-04-23 05:01 40.92190 -74.72293 6956 ft 258 kts 27°
2026-04-23 05:02 40.93694 -74.70983 6952 ft 259 kts 27°
2026-04-23 05:02 40.95101 -74.69501 6941 ft 264 kts 43°
2026-04-23 05:02 40.96250 -74.67561 6958 ft 267 kts 47°
2026-04-23 05:02 40.97364 -74.65577 6957 ft 268 kts 47°
2026-04-23 05:03 40.98461 -74.63620 6958 ft 267 kts 47°
2026-04-23 05:03 40.99553 -74.61596 6948 ft 270 kts 55°
2026-04-23 05:03 41.00083 -74.59197 6943 ft 281 kts 83°
2026-04-23 05:03 40.99756 -74.56601 6944 ft 288 kts 105°
2026-04-23 05:04 40.99079 -74.54082 6954 ft 290 kts 107°
2026-04-23 05:04 40.98393 -74.51608 6955 ft 289 kts 107°
2026-04-23 05:04 40.97631 -74.49139 6967 ft 290 kts 111°
2026-04-23 05:04 40.96814 -74.46664 6971 ft 290 kts 111°
2026-04-23 05:05 40.96015 -74.44252 6966 ft 289 kts 111°
2026-04-23 05:05 40.95217 -74.41849 6957 ft 278 kts 111°
2026-04-23 05:05 40.94447 -74.39536 6814 ft 271 kts 111°
2026-04-23 05:05 40.93700 -74.37288 6546 ft 269 kts 111°
2026-04-23 05:06 40.92944 -74.35012 6226 ft 270 kts 111°
2026-04-23 05:06 40.92179 -74.32713 5887 ft 272 kts 112°
2026-04-23 05:06 40.91416 -74.30424 5560 ft 272 kts 112°
2026-04-23 05:06 40.90649 -74.28121 5236 ft 273 kts 112°
2026-04-23 05:07 40.89887 -74.25838 4916 ft 273 kts 112°
2026-04-23 05:07 40.89120 -74.23542 4591 ft 273 kts 113°
2026-04-23 05:07 40.88345 -74.21220 4265 ft 273 kts 113°
2026-04-23 05:07 40.87587 -74.18954 3949 ft 273 kts 113°
2026-04-23 05:08 40.86806 -74.16621 3621 ft 273 kts 113°
2026-04-23 05:08 40.86047 -74.14356 3305 ft 273 kts 114°
2026-04-23 05:08 40.85267 -74.12073 3150 ft 265 kts 118°
2026-04-23 05:08 40.84106 -74.10304 3078 ft 251 kts 148°
2026-04-23 05:09 40.82561 -74.09433 2979 ft 236 kts 171°
2026-04-23 05:09 40.80954 -74.09478 2688 ft 229 kts 195°
2026-04-23 05:09 40.79436 -74.10102 2241 ft 233 kts 204°
2026-04-23 05:09 40.77948 -74.10948 1786 ft 224 kts 207°
2026-04-23 05:10 40.76602 -74.11793 1509 ft 207 kts 207°
2026-04-23 05:10 40.75358 -74.12625 1248 ft 194 kts 208°
2026-04-23 05:10 40.74160 -74.13373 1003 ft 182 kts 206°
2026-04-23 05:10 40.73065 -74.14066 769 ft 170 kts 207°
2026-04-23 05:11 40.72022 -74.14722 547 ft 159 kts 206°
2026-04-23 05:11 40.71076 -74.15324 338 ft 148 kts 206°
2026-04-23 05:11 40.70164 -74.15897 119 ft 140 kts 206°
2026-04-23 05:11 40.69340 -74.16423 20 ft 112 kts 206°
2026-04-23 05:12 40.68769 -74.16785 20 ft 68 kts 205°
2026-04-23 05:12 40.68469 -74.16977 20 ft 36 kts 206°
2026-04-23 05:12 40.68291 -74.17152 20 ft 10 kts 227°
2026-04-23 05:12 40.68241 -74.17230 21 ft 11 kts 232°
2026-04-23 05:13 40.68195 -74.17316 21 ft 11 kts 235°
2026-04-23 05:13 40.68153 -74.17409 21 ft 9 kts 261°
2026-04-23 05:13 40.68165 -74.17497 21 ft 9 kts 292°
2026-04-23 05:14 40.68250 -74.17683 21 ft 13 kts 327°
2026-04-23 05:14 40.68273 -74.17703 21 ft 0 kts 326°
2026-04-23 05:17 40.68301 -74.17723 21 ft 7 kts 342°
2026-04-23 05:17 40.68367 -74.17707 21 ft 12 kts 32°
2026-04-23 05:17 40.68464 -74.17637 21 ft 18 kts 25°
2026-04-23 05:17 40.68594 -74.17558 20 ft 22 kts 25°
2026-04-23 05:18 40.68732 -74.17471 20 ft 21 kts 26°
2026-04-23 05:18 40.68853 -74.17394 20 ft 11 kts 25°
2026-04-23 05:18 40.68929 -74.17371 20 ft 11 kts 345°
2026-04-23 05:18 40.68968 -74.17402 20 ft 4 kts 317°
2026-04-23 05:19 40.68982 -74.17431 20 ft 1 kts 291°
2026-04-23 05:19 40.68986 -74.17448 20 ft 2 kts 290°
2026-04-23 05:19 40.68989 -74.17456 20 ft 0 kts 289°
2026-04-23 05:19 40.68989 -74.17457 20 ft 0 kts 289°